ENVISAT

Last updated on Sat Aug 15 2026 00:02:08 GMT+0000 (Coordinated Universal Time)

1 27386U 02009A 26226.45502119 .00000016 00000+0 18965-4 0 9991 2 27386 98.3870 176.4848 0001185 84.3221 26.7689 14.39076283281862
UTC large
Height (km)
Speed (km/s)
/
Latitude / Longitude
Inclination (degrees)
Orbital Period (minutes)
Azimuth
Elevation
Range (km)
Doppler Factor

Next 0 passes for location: London (51.5072 / 0.1276)

No passes found over London.
ENVISAT